www.pogodaiklimat.ru

Погода и климат >> Архив погоды >> Россия >> Калмыкия >> Лагань


ПОГОДА в Лагани

  • Прогноз погоды в Лагани
  • Монитор погоды в Лагани

АРХИВ ПОГОДЫ в Лагани

Время (UTC), дата Ветер
(напр.,м/с)
 
Видим.   Явления Облачность Т
(С)
Тd
(С)
f
(%)
Тe
(С)
Тes
(С)
Комфортность P
(гПа)
Po
(гПа)
Тmin
(С)
Tmax
(С)
R
(мм)
R24
(мм)
S
(см)
21 12.07 СЗ 6
{15}
20 км ясно +18.7 +13.4 71 +19 +19 1007.9 1010.5
00 13.07 СЗ 5
{11}
20 км 10/8 600 м
[Cb cap Ac As]
+18.3 +13.2 72 +18 +18 1008.7 1011.3
03 13.07 СЗ 5 10 км 9/3 600 м
[Cb calv Ac cuf Ci fib]
+16.9 +13.3 79 +16 +17 1008.7 1011.3 +16.3
06 13.07 СЗ 4 20 км 9/4 600 м
[Cb calv Ac cuf Ci sp]
+18.6 +13.3 71 +19 +22 1008.9 1011.5
09 13.07 С 3 20 км слаб. ливневой дождь 10/5 600 м
[Cb cap Ac As]
+19.6 +14.5 72 +22 +24 комфорт 1009.5 1012.1
12 13.07 СЗ 4 20 км {ливн. осадки} 4/0
[Ac trans Ci fib]
+24.9 +11.7 44 +26 +32 жарко 1009.2 1011.7
15 13.07 С 3 20 км 3/0
[Ci fib]
+25.2 +10.1 39 +26 +27 жарко 1008.8 1011.4 +25.8 0.5
18 13.07 штиль 0 20 км 4/0
[Ac trans Ci fib]
+19.7 +11.4 59 +21 +21 комфорт 1010.0 1012.6
21 13.07 З 1 20 км 8/0
[Ac As]
+18.0 +12.1 68 +19 +19 1009.9 1012.5
00 14.07 штиль 0 20 км 10/0
[Ac As]
+18.2 +12.3 68 +18 +18 1009.5 1012.1
03 14.07 штиль 0 20 км 10/6 600 м
[Cb cap Ac As]
+19.0 +13.1 69 +20 +20 1009.8 1012.4 +17.9
06 14.07 В 1 20 км 10/5 1000 м
[Cb cap Ac As]
+21.6 +12.4 56 +24 +26 комфорт 1010.1 1012.7
09 14.07 ЮЗ 3 10 км слаб. ливневой дождь 10/8 600 м
[Cb cap Ac As]
+20.1 +15.6 75 +23 +24 комфорт 1010.9 1013.4
12 14.07 ЮВ 3 20 км {ливн. осадки} 9/3 600 м
[Cb cap Ac cuf Ci sp]
+21.0 +16.3 75 +25 +29 комфорт 1010.6 1013.2
15 14.07 ЮВ 5 20 км 3/0
[Ci sp]
+22.2 +13.1 56 +25 +26 комфорт 1010.3 1012.8 +22.7 3
18 14.07 Ю 3 10 км 5/0
[Ac trans Ci sp]
+17.3 +14.5 84 +17 +17 1009.9 1012.5
21 14.07 Ю 3 10 км 3/0
[Ci sp]
+17.5 +14.8 84 +18 +18 1009.3 1011.9
00 15.07 Ю 3 10 км 3/0
[Ci sp]
+16.4 +14.6 89 +16 +16 1008.9 1011.5
03 15.07 З 2 10 км 6/0
[Ac cuf Ci sp]
+17.7 +15.0 84 +18 +19 1008.9 1011.5 +15.5
06 15.07 ЮВ 1 20 км 5/0
[Ac cuf Ci sp]
+26.1 +11.5 40 +27 +38 жарко 1009.1 1011.6
09 15.07 ЮВ 6 20 км 3/3 1000 м
[Cu hum Ci sp]
+27.5 +12.3 39 +29 +34 жарко 1008.5 1011.0
12 15.07 В 8-10
{12}
20 км 3/0
[Ac cast]
+26.5 +15.0 49 +29 +31 жарко 1007.6 1010.1
15 15.07 В 4
{11}
20 км ясно +25.3 +16.0 56 +29 +29 душно 1007.1 1009.6 +27.7
18 15.07 СВ 2 20 км 3/0
[Ac cuf]
+21.4 +16.7 75 +25 +25 комфорт 1006.9 1009.4
21 15.07 СВ 2 10 км 8/0
[Ac trans Ci sp]
+20.8 +17.5 81 +25 +25 комфорт 1006.3 1008.9
00 16.07 СВ 1 10 км 10/6 600 м
[Cb cap Ac As]
+21.2 +18.4 84 +25 +25 комфорт 1005.5 1008.1
03 16.07 С 3 10 км 9/5 600 м
[Cb cap Ac As]
+22.1 +19.0 83 +28 +28 душно 1005.4 1007.9 +20.2
06 16.07 В 5 20 км гроза, ливневой дождь 8/5 600 м
[Cb cap Ac cuf Ci sp]
+25.3 +19.2 69 +30 +33 душно 1005.2 1007.8
09 16.07 СВ 3 20 км в посл. час гроза {ливн. осадки} 9/3 1000 м
[Cb cap Ac cuf]
+27.8 +18.2 56 +33 +37 очень
душно
1004.9 1007.3
12 16.07 В 5 20 км {гроза, ливн. осадки} 4/3 1000 м
[Cb calv Ac trans]
+28.9 +17.0 49 +33 +36 очень
душно
1004.0 1006.5
15 16.07 СВ 2 20 км 3/0
[Ac cast]
+27.9 +17.1 52 +32 +33 душно 1004.8 1007.3 +29.4 0.3
18 16.07 С 3 20 км 3/0
[Ci fib]
+23.2 +18.8 76 +29 +29 душно 1006.0 1008.5
21 16.07 СЗ 3 20 км ясно +20.0 +16.0 78 +23 +23 комфорт 1006.3 1008.8
00 17.07 СЗ 3 10 км 3/0
[Ci fib]
+18.4 +15.6 84 +19 +19 1006.8 1009.3
03 17.07 СЗ 4 20 км 1/0
[Ci fib]
+22.1 +15.6 67 +26 +27 душно 1007.3 1009.8 +18.3
06 17.07 СЗ 6-10
{11}
20 км ясно +27.7 +14.6 45 +30 +35 жарко 1007.3 1009.8
09 17.07 СЗ 4
{11}
20 км ясно +32.0 +10.9 27 +32 +44 жарко 1006.7 1009.2
12 17.07 СЗ 3 20 км 3/0
[Ac cast]
+33.9 +10.5 24 +33 +40 жарко 1006.2 1008.7
15 17.07 СЗ 2 20 км 6/0
[Ac lent Ci fib]
+32.5 +10.9 27 +32 +33 жарко 1005.9 1008.3 +34.3
18 17.07 Ю 1 20 км 6/0
[Ac trans Ci fib]
+25.4 +16.5 58 +29 +29 душно 1006.9 1009.4
21 17.07 С 3 20 км 8/0
[Ac trans Ci fib]
+24.0 +13.6 52 +26 +26 жарко 1006.8 1009.3
00 18.07 С 2 20 км 6/0
[Ac trans Ci fib]
+21.3 +15.1 68 +24 +24 комфорт 1007.0 1009.6
03 18.07 С 3 20 км 8/4 600 м
[Cb calv Ac cuf Ci fib]
+21.4 +15.2 68 +25 +25 комфорт 1007.4 1010.0 +20.3
06 18.07 СВ 4 20 км ясно +28.9 +14.5 41 +31 +39 жарко 1007.7 1010.2
09 18.07 СВ 3 20 км 3/0
[Ci fib]
+32.3 +14.1 33 +34 +48 душно 1006.6 1009.1
12 18.07 СВ 5 20 км ясно +33.4 +13.6 30 +34 +40 очень
жарко
1005.6 1008.0
15 18.07 В 2 20 км 4/0
[Ac cast Ci sp]
+31.3 +16.6 41 +34 +35 душно 1005.9 1008.4 +33.5
18 18.07 З 1 20 км 4/0
[Ac cast]
+26.2 +16.4 55 +30 +30 душно 1007.3 1009.8
21 18.07 С 3 20 км 8/4 1000 м
[Cb calv Ac cuf Ci sp]
+26.0 +12.0 42 +27 +27 жарко 1007.7 1010.2
00 19.07 ЮЗ 2 20 км зарница 8/5 1000 м
[Cb cap Ac cuf]
+23.4 +14.2 56 +27 +27 душно 1008.9 1011.5
03 19.07 С 3 20 км {ливн. осадки} 8/3 1000 м
[Cb calv Ac cuf Ci sp]
+24.4 +14.9 55 +27 +28 жарко 1009.6 1012.1 +21.6 0.1
06 19.07 СЗ 3 20 км {ливн. осадки} 8/3 1000 м
[Cb cap Ac cuf Ci sp]
+30.6 +12.2 32 +31 +36 жарко 1010.8 1013.3
09 19.07 С 3 20 км 4/0
[Ac cuf Ci sp]
+34.4 +10.4 23 +34 +46 очень
жарко
1010.8 1013.2
12 19.07 СВ 4 20 км 6/3 1500 м
[Cu med, cong Ac cuf Ci sp]
+33.9 +12.3 27 +34 +38 очень
жарко
1010.5 1013.0
15 19.07 В 3 20 км 4/0
[Ac cast Ci sp]
+32.1 +15.0 36 +34 +35 душно 1011.1 1013.6 +35.7

 

Местоположение метеостанции Лагань (Калмыкия, Россия): широта 45.40 долгота 47.35 высота над уровнем моря -25 м.

В архиве по умолчанию представлена погода в Лагани за последнюю неделю. Архивные данные за месяц целиком и за предыдущие месяцы, начиная с января 2011 года, Вы можете получить, выбрав интересующий диапазон дат из раскрывающегося списка и нажав кнопку "Ввод!".


*Определитесь, кто Вы:
робот инопланетянин человек

Внимание! Время в таблицах - всемирное. Для получения местного времени необходимо прибавить поправку, которая равна 3 ч.

Смотрите также архив погоды в соседних городах и на ближайших метеорологических станциях:

Погода в Лимане (Астраханская область, Россия) (46 км)
Погода в Артезиане (Калмыкия, Россия) (70 км)
Погода в Комсомольском (Калмыкия, Россия) (103 км)
Погода на Острове Тюлений (Дагестан, Россия) (104 км)
Погода в Астрахани (Астраханская область, Россия) (109 км)
Погода в Кочубее (Дагестан, Россия) (128 км)
Погода в Зеленге (Астраханская область, Россия) (131 км)
Погода в Утте (Калмыкия, Россия) (149 км)
Погода в Южно-Сухокумске (Дагестан, Россия) (158 км)
Погода в Досанге (Астраханская область, Россия) (175 км)

Пояснения к столбцам:

Ветер - указаны скорость ветра в м/с - средняя за 10 мин, порывы в срок и между сроками (в фигурных скобках) и направление, откуда дует ветер: С - северный, СВ - северо-восточный, В - восточный, ЮВ - юго-восточный, Ю - южный, ЮЗ - юго-западный, З - западный, СЗ - северо-западный.
Видимость - горизонтальная дальность видимости в метрах или километрах. При видимости от 1 до 10 км при отсутствии осадков обычно наблюдается дымка, при ухудшении видимости до 1 км и менее - туман. В сухую погоду видимость может ухудшаться дымом, пылью или мглою.
Явления - указаны атмосферные явления, наблюдавшиеся в срок или в последний час перед сроком; фигурными скобками обозначены явления, наблюдавшиеся между сроками (за 1-3 часа до срока); квадратными скобками обозначены град или гололедные отложения с указанием их диаметра в мм.
Облачность - указаны через наклонную черту общая и нижняя облачность в баллах и высота нижней границы облаков в метрах; квадратными скобками обозначены формы облаков: Ci - перистые, Cs - перисто-слоистые, Cc - перисто-кучевые, Ac - высококучевые, As - высокослоистые, Sc - слоисто-кучевые, Ns - слоисто-дождевые, Cu - кучевые, Cb - кучево-дождевые. Подробнее классификацию облаков см. в Атласе облаков (PDF).
T - Температура воздуха - температура, измеренная на высоте 2 м над землей.
Td - Температура точки росы - температура, при понижении до которой содержащийся в воздухе водяной пар достигнет насыщения.
f - Относительная влажность воздуха - влажноcть воздуха, измеренная на высоте 2 м над землей.
Te - Эффективная температура - температура, которую ощущает одетый по сезону человек в тени. Характеристика душности погоды. При расчете учитывается влияние влажности воздуха и скорости ветра на теплоощущения человека.
Tes - Эффективная температура на солнце - температура, которую ощущает человек, с поправкой на солнечный нагрев. Характеристика знойности погоды. Зависит от высоты солнца над горизонтом, облачности и скорости ветра. Ночью, в пасмурную погоду, а также при ветре 12 м/с и более поправка равна нулю.
P - Атмосферное давление - приведенное к уровню моря атмосферное давление.
Po - Атмосферное давление - измеренное на уровне метеостанции атмосферное давление.
Tmin - Минимальная температура - минимум температуры воздуха на высоте 2 м над землей.
Tmax - Максимальная температура - максимум температуры воздуха на высоте 2 м над землей.
R - Количество осадков - Количество выпавших осадков за период времени, мм. При наведении курсора мыши на число - период времени, за который выпало указанное количество осадков.
R24 - Количество осадков - Количество выпавших осадков за 24 часа, мм.
S - Снежный покров - Высота снежного покрова, см. При наведении курсора мыши на число - состояние снежного покрова и степень покрытия местности в баллах.